Total_Precipitation_Accumulation
0.07 0.08 0.09 0.09 0.11 0.13 0.17 0.22 0.35 0.43 0.36 0.45 0.59 0.90 1.02 1.14 1.32 1.29 1.19 1.21 1.44 1.62 1.91 2.37 2.93 3.78 4.88 5.86 6.17 5.69 5.23 4.98 4.61 4.25 3.67 3.39 3.53 3.48 3.26 2.91 2.54 2.50 2.40 2.49
0.10 0.11 0.08 0.07 0.09 0.13 0.17 0.23 0.34 0.41 0.32 0.37 0.62 1.00 1.29 1.25 1.20 1.17 1.26 1.28 1.35 1.69 2.12 2.83 3.85 4.42 4.71 4.88 4.64 4.33 4.15 4.01 3.52 3.27 3.21 3.04 3.12 2.86 2.72 2.62 2.72 2.32 2.17 2.27
0.10 0.10 0.08 0.07 0.10 0.19 0.20 0.23 0.32 0.39 0.30 0.37 0.66 1.24 1.54 1.44 1.18 1.05 1.17 1.21 1.34 1.72 2.31 3.13 3.71 3.83 3.58 3.26 3.13 3.11 3.25 3.06 2.96 3.06 3.03 2.96 3.06 2.77 2.59 2.56 2.70 2.30 1.99 1.98
0.11 0.08 0.07 0.08 0.10 0.17 0.22 0.17 0.16 0.20 0.30 0.56 0.79 1.52 1.70 1.47 1.37 1.15 1.19 1.21 1.21 1.45 1.85 2.29 2.56 2.45 2.54 2.67 2.68 2.83 2.96 2.75 2.80 2.84 2.63 2.55 2.49 2.38 2.36 2.42 2.53 2.56 2.10 1.92
0.11 0.10 0.09 0.09 0.09 0.10 0.13 0.11 0.15 0.22 0.37 0.60 0.83 1.24 1.47 1.24 1.40 1.18 1.05 1.03 0.96 1.14 1.33 1.46 1.57 1.67 1.86 1.99 2.16 2.45 2.74 2.76 2.65 2.53 2.53 2.57 2.41 2.41 2.39 2.41 2.51 2.60 2.39 2.09
0.10 0.10 0.09 0.08 0.08 0.09 0.10 0.13 0.25 0.36 0.56 1.10 1.07 1.12 1.38 1.38 1.39 1.21 1.04 0.86 0.87 1.01 1.19 1.29 1.29 1.38 1.56 1.71 1.93 2.19 2.58 2.72 2.69 2.53 2.44 2.46 2.51 2.52 2.46 2.50 2.49 2.31 2.28 2.25
0.14 0.11 0.09 0.08 0.10 0.11 0.13 0.19 0.44 0.81 1.19 1.37 0.90 0.98 1.30 1.20 1.05 0.94 0.73 0.67 0.75 0.94 1.10 1.29 1.31 1.28 1.35 1.50 1.63 1.74 2.03 2.34 2.49 2.42 2.38 2.36 2.52 2.44 2.26 2.20 2.18 2.16 1.95 1.90
0.19 0.16 0.09 0.07 0.10 0.13 0.11 0.14 0.29 0.47 0.57 0.71 0.88 1.28 1.40 1.17 0.79 0.54 0.52 0.65 0.81 0.94 1.03 1.15 1.20 1.16 1.22 1.29 1.45 1.61 1.94 2.13 2.31 2.34 2.33 2.35 2.42 2.30 2.13 2.18 2.00 1.98 1.91 1.82
0.10 0.10 0.07 0.06 0.08 0.11 0.12 0.13 0.14 0.21 0.25 0.51 0.92 1.22 1.18 1.00 0.78 0.63 0.60 0.68 0.88 0.90 0.86 0.97 1.01 1.17 1.25 1.23 1.38 1.53 1.81 2.17 2.40 2.50 2.57 2.52 2.49 2.45 2.39 2.32 2.09 1.90 2.03 1.91
0.06 0.07 0.08 0.06 0.08 0.09 0.11 0.14 0.17 0.18 0.27 0.44 0.76 1.19 1.40 1.22 0.98 0.83 0.76 0.76 0.82 0.84 0.85 1.06 1.25 1.34 1.23 1.11 1.22 1.36 1.65 2.14 2.43 2.60 2.57 2.43 2.61 2.50 2.47 2.37 2.15 1.98 1.98 2.03
0.04 0.06 0.09 0.08 0.09 0.11 0.11 0.13 0.18 0.19 0.20 0.30 0.61 0.88 0.84 0.85 0.80 0.78 0.83 0.81 0.67 0.73 0.88 1.12 1.41 1.45 1.27 1.09 1.06 1.21 1.59 1.92 2.17 2.37 2.45 2.31 2.27 2.21 2.22 2.23 2.17 2.11 2.12 2.10
0.03 0.05 0.07 0.09 0.11 0.11 0.12 0.15 0.19 0.23 0.22 0.21 0.36 0.62 0.48 0.57 0.65 0.75 0.89 0.95 0.90 0.92 0.98 1.03 1.20 1.37 1.28 1.20 1.16 1.36 1.65 1.83 1.94 2.06 2.11 2.09 2.09 2.09 2.02 1.97 2.05 2.12 2.04 1.94
0.04 0.05 0.08 0.17 0.22 0.17 0.13 0.13 0.16 0.20 0.23 0.20 0.37 0.65 0.49 0.46 0.68 0.80 0.87 1.08 1.18 0.93 0.84 0.89 1.02 1.16 1.27 1.24 1.26 1.47 1.72 1.77 1.81 1.78 1.86 1.86 1.89 1.88 1.85 1.85 1.92 2.01 2.03 2.02
0.05 0.04 0.06 0.15 0.24 0.23 0.18 0.15 0.16 0.17 0.16 0.17 0.26 0.56 0.52 0.50 0.70 0.99 1.07 1.08 0.92 0.87 0.86 0.88 0.97 1.17 1.24 1.30 1.31 1.38 1.58 1.74 1.71 1.67 1.79 1.94 2.02 2.08 2.06 1.98 2.02 2.13 2.26 2.25
0.05 0.04 0.04 0.05 0.09 0.15 0.18 0.18 0.16 0.13 0.11 0.17 0.21 0.41 0.46 0.57 0.74 0.93 0.99 0.86 0.77 0.84 0.87 0.87 0.95 1.13 1.27 1.45 1.52 1.52 1.56 1.63 1.78 1.93 2.05 2.32 2.50 2.50 2.36 2.30 2.36 2.39 2.46 2.40
0.05 0.05 0.04 0.05 0.08 0.14 0.17 0.18 0.14 0.10 0.10 0.14 0.20 0.34 0.42 0.57 0.69 0.81 0.78 0.75 0.83 0.87 0.87 0.82 0.91 1.13 1.20 1.26 1.38 1.43 1.50 1.59 1.69 1.82 1.98 2.25 2.50 2.64 2.58 2.59 2.73 2.74 2.69 2.77
0.08 0.08 0.07 0.08 0.12 0.14 0.23 0.19 0.15 0.15 0.14 0.17 0.26 0.32 0.39 0.52 0.68 0.84 0.87 0.87 0.92 0.93 0.91 0.90 0.88 1.00 1.23 1.19 1.23 1.38 1.49 1.67 1.86 2.13 2.34 2.48 2.70 2.85 2.79 2.69 2.70 2.72 2.77 2.76
0.19 0.18 0.16 0.14 0.17 0.27 0.27 0.23 0.23 0.24 0.28 0.29 0.33 0.40 0.48 0.58 0.72 0.85 0.92 0.91 1.01 1.11 1.20 1.24 1.28 1.28 1.38 1.36 1.38 1.48 1.64 1.85 1.97 2.10 2.32 2.49 2.69 2.80 2.87 2.89 2.83 2.90 3.03 3.06
0.30 0.33 0.29 0.24 0.27 0.31 0.33 0.33 0.36 0.40 0.52 0.56 0.62 0.67 0.68 0.72 0.77 0.92 1.05 1.14 1.24 1.22 1.27 1.38 1.45 1.48 1.50 1.58 1.73 1.92 2.00 2.18 2.36 2.47 2.64 2.73 2.76 2.83 2.87 2.91 3.05 3.17 3.29 3.29
0.35 0.40 0.41 0.35 0.44 0.52 0.52 0.51 0.47 0.56 0.91 0.80 0.88 0.98 0.98 1.05 1.30 1.36 1.35 1.35 1.39 1.37 1.40 1.48 1.52 1.57 1.78 1.84 1.91 2.10 2.33 2.50 2.68 2.85 2.95 3.02 3.07 3.07 3.03 3.04 3.16 3.25 3.32 3.35
0.44 0.51 0.51 0.48 0.51 0.55 0.56 0.56 0.57 1.00 1.37 1.29 1.29 1.32 1.25 1.40 1.50 1.38 1.30 1.43 1.49 1.55 1.61 1.64 1.68 1.78 1.92 1.99 2.07 2.25 2.53 2.78 2.98 3.02 3.07 3.13 3.23 3.40 3.53 3.56 3.38 3.24 3.25 3.35
0.74 0.77 0.76 0.74 0.90 0.97 0.68 0.76 1.13 1.41 1.34 1.57 1.45 1.30 1.33 1.34 1.29 1.24 1.26 1.43 1.61 1.74 1.79 1.82 1.86 1.90 1.95 2.08 2.22 2.32 2.58 2.72 2.92 2.96 3.08 3.17 3.21 3.16 3.18 3.48 3.57 3.54 3.42 3.29
1.01 1.06 1.10 1.08 1.21 1.09 0.91 0.97 1.24 1.29 1.30 1.44 1.44 1.25 1.22 1.24 1.18 1.20 1.27 1.39 1.56 1.70 1.76 1.75 1.82 1.95 1.95 1.98 2.18 2.46 2.54 2.62 2.66 2.79 2.92 3.13 3.24 3.31 3.29 3.30 3.40 3.42 3.34 3.13
1.23 1.05 1.22 1.42 1.45 1.30 1.12 1.02 1.10 1.17 1.24 1.29 1.42 1.43 1.31 1.27 1.22 1.28 1.32 1.41 1.63 1.72 1.72 1.78 1.74 1.77 1.89 1.99 2.19 2.30 2.34 2.49 2.75 2.87 2.91 2.98 3.07 3.12 3.20 3.30 3.27 3.22 3.19 3.11
1.33 1.30 1.54 1.94 2.00 1.84 1.67 1.42 1.30 1.27 1.30 1.39 1.50 1.56 1.61 1.57 1.49 1.52 1.46 1.49 1.62 1.67 1.64 1.73 1.83 1.86 1.93 2.00 2.17 2.33 2.38 2.44 2.59 2.68 2.66 2.74 2.89 2.98 3.06 3.20 3.27 3.12 3.01 3.02
1.34 1.58 1.97 2.33 2.16 2.16 2.02 1.66 1.49 1.50 1.60 1.59 1.60 1.64 1.61 1.61 1.59 1.61 1.65 1.57 1.50 1.48 1.61 1.76 1.84 1.92 1.98 2.03 2.11 2.18 2.26 2.40 2.54 2.61 2.64 2.63 2.67 2.82 2.91 2.88 2.94 2.97 2.73 2.66